Time,TemperatureF,DewpointF,PressureIn,WindDirection,WindDirectionDegrees,WindSpeedMPH,WindSpeedGustMPH,Humidity,HourlyPrecipIn,Conditions,Clouds,dailyrainin,SoftwareType,DateUTC
2014-10-30 00:00:00,44.1,34.6,30.04,WNW,282,0.0,0.0,69,0.00,,,0.00,VWS V15.00,2014-10-30 05:00:00,
2014-10-30 00:05:00,44.1,34.6,30.04,WNW,282,0.0,0.0,69,0.00,,,0.00,VWS V15.00,2014-10-30 05:05:00,
2014-10-30 00:10:00,43.9,34.4,30.04,WNW,282,0.0,0.0,69,0.00,,,0.00,VWS V15.00,2014-10-30 05:10:00,
2014-10-30 00:15:00,43.9,34.8,30.04,WNW,282,0.0,0.0,70,0.00,,,0.00,VWS V15.00,2014-10-30 05:15:00,
2014-10-30 00:20:00,43.9,34.8,30.04,WNW,282,0.0,0.0,70,0.00,,,0.00,VWS V15.00,2014-10-30 05:20:00,
2014-10-30 00:25:00,43.9,34.8,30.04,WNW,282,0.0,0.0,70,0.00,,,0.00,VWS V15.00,2014-10-30 05:25:00,
2014-10-30 00:30:00,43.8,34.7,30.04,WNW,282,0.0,0.0,70,0.00,,,0.00,VWS V15.00,2014-10-30 05:30:00,
2014-10-30 00:35:00,43.8,34.7,30.04,WNW,282,0.0,0.0,70,0.00,,,0.00,VWS V15.00,2014-10-30 05:35:00,
2014-10-30 00:40:00,43.8,35.0,30.04,WNW,282,0.0,0.0,71,0.00,,,0.00,VWS V15.00,2014-10-30 05:40:00,
2014-10-30 00:45:00,43.8,35.0,30.05,WNW,282,0.0,0.0,71,0.00,,,0.00,VWS V15.00,2014-10-30 05:45:00,
2014-10-30 00:50:00,43.6,34.8,30.05,WNW,282,0.0,0.0,71,0.00,,,0.00,VWS V15.00,2014-10-30 05:50:00,
2014-10-30 00:55:00,43.6,34.8,30.05,WNW,282,0.0,0.0,71,0.00,,,0.00,VWS V15.00,2014-10-30 05:55:00,
2014-10-30 01:00:00,43.6,34.8,30.05,WNW,282,0.0,0.0,71,0.00,,,0.00,VWS V15.00,2014-10-30 06:00:00,
2014-10-30 01:05:00,43.5,34.7,30.05,WNW,282,0.0,0.0,71,0.00,,,0.00,VWS V15.00,2014-10-30 06:05:00,
2014-10-30 01:10:00,43.5,34.7,30.05,WNW,282,0.0,0.0,71,0.00,,,0.00,VWS V15.00,2014-10-30 06:10:00,
2014-10-30 01:15:00,43.5,34.7,30.04,WNW,282,0.0,0.0,71,0.00,,,0.00,VWS V15.00,2014-10-30 06:15:00,
2014-10-30 01:20:00,43.5,34.4,30.04,WNW,282,0.0,0.0,70,0.00,,,0.00,VWS V15.00,2014-10-30 06:20:00,
2014-10-30 01:25:00,43.5,34.0,30.04,WNW,282,0.0,2.0,69,0.00,,,0.00,VWS V15.00,2014-10-30 06:25:00,
2014-10-30 01:30:00,43.6,33.8,30.05,WNW,282,0.0,2.0,68,0.00,,,0.00,VWS V15.00,2014-10-30 06:30:00,
2014-10-30 01:35:00,43.6,33.8,30.05,WNW,282,0.0,2.0,68,0.00,,,0.00,VWS V15.00,2014-10-30 06:35:00,
2014-10-30 01:40:00,43.6,33.8,30.05,WNW,282,0.0,2.0,68,0.00,,,0.00,VWS V15.00,2014-10-30 06:40:00,
2014-10-30 01:45:00,43.5,33.7,30.05,WNW,282,0.0,2.0,68,0.00,,,0.00,VWS V15.00,2014-10-30 06:45:00,
2014-10-30 01:50:00,43.5,34.0,30.05,WNW,282,0.0,2.0,69,0.00,,,0.00,VWS V15.00,2014-10-30 06:50:00,
2014-10-30 01:55:00,43.3,33.5,30.05,WNW,282,0.0,2.0,68,0.00,,,0.00,VWS V15.00,2014-10-30 06:55:00,
2014-10-30 02:01:00,43.3,33.8,30.05,WNW,282,0.0,1.0,69,0.00,,,0.00,VWS V15.00,2014-10-30 07:01:00,
2014-10-30 02:06:00,43.2,33.7,30.05,WNW,282,0.0,1.0,69,0.00,,,0.00,VWS V15.00,2014-10-30 07:06:00,
2014-10-30 02:11:00,43.1,33.6,30.05,WNW,282,0.0,1.0,69,0.00,,,0.00,VWS V15.00,2014-10-30 07:11:00,
2014-10-30 02:16:00,43.1,33.6,30.05,WNW,282,0.0,1.0,69,0.00,,,0.00,VWS V15.00,2014-10-30 07:16:00,
2014-10-30 02:21:00,42.9,33.4,30.05,WNW,282,0.0,1.0,69,0.00,,,0.00,VWS V15.00,2014-10-30 07:21:00,
2014-10-30 02:26:00,42.9,33.4,30.05,WNW,282,0.0,1.0,69,0.00,,,0.00,VWS V15.00,2014-10-30 07:26:00,
2014-10-30 02:31:00,42.8,33.3,30.05,WNW,282,0.0,1.0,69,0.00,,,0.00,VWS V15.00,2014-10-30 07:31:00,
2014-10-30 02:36:00,42.8,33.7,30.05,WNW,282,0.0,1.0,70,0.00,,,0.00,VWS V15.00,2014-10-30 07:36:00,
2014-10-30 02:41:00,42.6,33.2,30.05,WNW,282,0.0,2.0,69,0.00,,,0.00,VWS V15.00,2014-10-30 07:41:00,
2014-10-30 02:46:00,42.6,33.5,30.05,WNW,282,0.0,2.0,70,0.00,,,0.00,VWS V15.00,2014-10-30 07:46:00,
2014-10-30 02:51:00,42.5,33.4,30.05,WNW,282,0.0,2.0,70,0.00,,,0.00,VWS V15.00,2014-10-30 07:51:00,
2014-10-30 02:56:00,42.5,33.4,30.05,WNW,282,0.0,2.0,70,0.00,,,0.00,VWS V15.00,2014-10-30 07:56:00,
2014-10-30 03:01:00,42.3,33.6,30.05,WNW,282,0.0,2.0,71,0.00,,,0.00,VWS V15.00,2014-10-30 08:01:00,
2014-10-30 03:06:00,42.3,33.6,30.05,WNW,282,0.0,2.0,71,0.00,,,0.00,VWS V15.00,2014-10-30 08:06:00,
2014-10-30 03:11:00,42.2,33.5,30.05,WNW,282,0.0,2.0,71,0.00,,,0.00,VWS V15.00,2014-10-30 08:11:00,
2014-10-30 03:16:00,42.1,33.4,30.05,WNW,282,0.0,2.0,71,0.00,,,0.00,VWS V15.00,2014-10-30 08:16:00,
2014-10-30 03:21:00,41.9,33.2,30.05,WNW,282,0.0,2.0,71,0.00,,,0.00,VWS V15.00,2014-10-30 08:21:00,
2014-10-30 03:26:00,41.6,32.9,30.05,WNW,282,0.0,2.0,71,0.00,,,0.00,VWS V15.00,2014-10-30 08:26:00,
2014-10-30 03:31:00,41.5,32.8,30.05,WNW,282,0.0,2.0,71,0.00,,,0.00,VWS V15.00,2014-10-30 08:31:00,
2014-10-30 03:36:00,41.2,32.9,30.05,WNW,282,0.0,2.0,72,0.00,,,0.00,VWS V15.00,2014-10-30 08:36:00,
2014-10-30 03:41:00,41.1,33.1,30.05,WNW,282,0.0,2.0,73,0.00,,,0.00,VWS V15.00,2014-10-30 08:41:00,
2014-10-30 03:46:00,40.8,32.8,30.05,WNW,282,0.0,2.0,73,0.00,,,0.00,VWS V15.00,2014-10-30 08:46:00,
2014-10-30 03:51:00,40.5,32.9,30.05,WNW,282,0.0,2.0,74,0.00,,,0.00,VWS V15.00,2014-10-30 08:51:00,
2014-10-30 03:56:00,40.3,32.7,30.05,WNW,282,0.0,2.0,74,0.00,,,0.00,VWS V15.00,2014-10-30 08:56:00,
2014-10-30 04:02:00,40.1,32.8,30.05,WNW,282,0.0,0.0,75,0.00,,,0.00,VWS V15.00,2014-10-30 09:02:00,
2014-10-30 04:07:00,39.8,32.9,30.05,WNW,282,0.0,0.0,76,0.00,,,0.00,VWS V15.00,2014-10-30 09:07:00,
2014-10-30 04:12:00,39.5,32.9,30.05,WNW,282,0.0,0.0,77,0.00,,,0.00,VWS V15.00,2014-10-30 09:12:00,
2014-10-30 04:19:00,39.2,32.9,30.06,WNW,282,0.0,0.0,78,0.00,,,0.00,VWS V15.00,2014-10-30 09:19:00,
2014-10-30 04:24:00,38.9,33.0,30.06,WNW,282,0.0,0.0,79,0.00,,,0.00,VWS V15.00,2014-10-30 09:24:00,
2014-10-30 04:34:00,38.6,33.0,30.05,WNW,282,0.0,0.0,80,0.00,,,0.00,VWS V15.00,2014-10-30 09:34:00,
2014-10-30 04:39:00,38.5,33.2,30.05,WNW,282,0.0,0.0,81,0.00,,,0.00,VWS V15.00,2014-10-30 09:39:00,
2014-10-30 04:44:00,38.2,33.2,30.05,WNW,282,0.0,0.0,82,0.00,,,0.00,VWS V15.00,2014-10-30 09:44:00,
2014-10-30 04:49:00,38.0,33.0,30.06,WNW,282,0.0,0.0,82,0.00,,,0.00,VWS V15.00,2014-10-30 09:49:00,
2014-10-30 04:54:00,37.9,33.2,30.06,WNW,282,0.0,0.0,83,0.00,,,0.00,VWS V15.00,2014-10-30 09:54:00,
2014-10-30 04:59:00,37.8,33.1,30.06,WNW,282,0.0,0.0,83,0.00,,,0.00,VWS V15.00,2014-10-30 09:59:00,
2014-10-30 05:04:00,37.6,33.2,30.06,WNW,282,0.0,0.0,84,0.00,,,0.00,VWS V15.00,2014-10-30 10:04:00,
2014-10-30 05:09:00,37.6,33.2,30.06,WNW,282,0.0,0.0,84,0.00,,,0.00,VWS V15.00,2014-10-30 10:09:00,
2014-10-30 05:14:00,37.3,32.9,30.06,WNW,282,0.0,0.0,84,0.00,,,0.00,VWS V15.00,2014-10-30 10:14:00,
2014-10-30 05:19:00,37.2,33.1,30.06,WNW,282,0.0,0.0,85,0.00,,,0.00,VWS V15.00,2014-10-30 10:19:00,
2014-10-30 05:24:00,37.0,32.9,30.06,WNW,282,0.0,0.0,85,0.00,,,0.00,VWS V15.00,2014-10-30 10:24:00,
2014-10-30 05:29:00,36.9,32.8,30.06,WNW,282,0.0,0.0,85,0.00,,,0.00,VWS V15.00,2014-10-30 10:29:00,
2014-10-30 05:34:00,36.6,32.8,30.06,WNW,282,0.0,0.0,86,0.00,,,0.00,VWS V15.00,2014-10-30 10:34:00,
2014-10-30 05:39:00,36.5,32.7,30.06,WNW,282,0.0,0.0,86,0.00,,,0.00,VWS V15.00,2014-10-30 10:39:00,
2014-10-30 05:44:00,36.2,32.4,30.07,WNW,282,0.0,0.0,86,0.00,,,0.00,VWS V15.00,2014-10-30 10:44:00,
2014-10-30 05:49:00,36.0,32.5,30.07,WNW,282,0.0,0.0,87,0.00,,,0.00,VWS V15.00,2014-10-30 10:49:00,
2014-10-30 05:54:00,35.9,32.4,30.07,WNW,282,0.0,0.0,87,0.00,,,0.00,VWS V15.00,2014-10-30 10:54:00,
2014-10-30 05:59:00,35.8,32.6,30.07,WNW,282,0.0,0.0,88,0.00,,,0.00,VWS V15.00,2014-10-30 10:59:00,
2014-10-30 06:04:00,35.5,32.3,30.07,WNW,282,0.0,0.0,88,0.00,,,0.00,VWS V15.00,2014-10-30 11:04:00,
2014-10-30 06:09:00,35.3,32.1,30.07,WNW,282,0.0,0.0,88,0.00,,,0.00,VWS V15.00,2014-10-30 11:09:00,
2014-10-30 06:14:00,35.2,32.0,30.07,WNW,282,0.0,0.0,88,0.00,,,0.00,VWS V15.00,2014-10-30 11:14:00,
2014-10-30 06:19:00,35.0,31.8,30.07,WNW,282,0.0,0.0,88,0.00,,,0.00,VWS V15.00,2014-10-30 11:19:00,
2014-10-30 06:24:00,34.7,31.8,30.07,WNW,282,0.0,0.0,89,0.00,,,0.00,VWS V15.00,2014-10-30 11:24:00,
2014-10-30 06:29:00,34.6,31.7,30.07,WNW,282,0.0,0.0,89,0.00,,,0.00,VWS V15.00,2014-10-30 11:29:00,
2014-10-30 06:34:00,34.6,31.7,30.07,WNW,282,0.0,0.0,89,0.00,,,0.00,VWS V15.00,2014-10-30 11:34:00,
2014-10-30 06:39:00,34.4,31.8,30.07,WNW,282,0.0,0.0,90,0.00,,,0.00,VWS V15.00,2014-10-30 11:39:00,
2014-10-30 06:44:00,34.3,31.7,30.07,WNW,282,0.0,0.0,90,0.00,,,0.00,VWS V15.00,2014-10-30 11:44:00,
2014-10-30 06:49:00,34.1,31.5,30.07,WNW,282,0.0,0.0,90,0.00,,,0.00,VWS V15.00,2014-10-30 11:49:00,
2014-10-30 06:54:00,34.0,31.4,30.07,WNW,282,0.0,0.0,90,0.00,,,0.00,VWS V15.00,2014-10-30 11:54:00,
2014-10-30 07:00:00,33.8,31.2,30.06,WNW,282,0.0,0.0,90,0.00,,,0.00,VWS V15.00,2014-10-30 12:00:00,
2014-10-30 07:05:00,33.7,31.1,30.06,WNW,282,0.0,0.0,90,0.00,,,0.00,VWS V15.00,2014-10-30 12:05:00,
2014-10-30 07:10:00,33.5,31.2,30.06,WNW,282,0.0,0.0,91,0.00,,,0.00,VWS V15.00,2014-10-30 12:10:00,
2014-10-30 07:15:00,33.5,31.2,30.07,WNW,282,0.0,0.0,91,0.00,,,0.00,VWS V15.00,2014-10-30 12:15:00,
2014-10-30 07:20:00,33.7,31.6,30.07,WNW,282,0.0,0.0,92,0.00,,,0.00,VWS V15.00,2014-10-30 12:20:00,
2014-10-30 07:25:00,33.7,31.6,30.07,WNW,282,0.0,0.0,92,0.00,,,0.00,VWS V15.00,2014-10-30 12:25:00,
2014-10-30 07:30:00,33.8,31.7,30.07,WNW,282,0.0,0.0,92,0.00,,,0.00,VWS V15.00,2014-10-30 12:30:00,
2014-10-30 07:35:00,34.0,32.2,30.07,WNW,282,0.0,0.0,93,0.00,,,0.00,VWS V15.00,2014-10-30 12:35:00,
2014-10-30 07:40:00,34.1,32.3,30.07,WNW,282,0.0,0.0,93,0.00,,,0.00,VWS V15.00,2014-10-30 12:40:00,
2014-10-30 07:45:00,34.4,32.6,30.07,WNW,282,0.0,0.0,93,0.00,,,0.00,VWS V15.00,2014-10-30 12:45:00,
2014-10-30 07:50:00,34.7,32.9,30.07,WNW,282,0.0,0.0,93,0.00,,,0.00,VWS V15.00,2014-10-30 12:50:00,
2014-10-30 07:55:00,35.0,33.2,30.07,WNW,282,0.0,0.0,93,0.00,,,0.00,VWS V15.00,2014-10-30 12:55:00,
2014-10-30 08:00:00,35.3,33.5,30.07,WNW,282,0.0,0.0,93,0.00,,,0.00,VWS V15.00,2014-10-30 13:00:00,
2014-10-30 08:05:00,35.6,33.8,30.07,WNW,282,0.0,0.0,93,0.00,,,0.00,VWS V15.00,2014-10-30 13:05:00,
2014-10-30 08:10:00,36.0,33.9,30.07,WNW,282,0.0,0.0,92,0.00,,,0.00,VWS V15.00,2014-10-30 13:10:00,
2014-10-30 08:15:00,36.2,34.1,30.07,WNW,282,0.0,0.0,92,0.00,,,0.00,VWS V15.00,2014-10-30 13:15:00,
2014-10-30 08:20:00,36.5,34.4,30.07,WNW,282,0.0,0.0,92,0.00,,,0.00,VWS V15.00,2014-10-30 13:20:00,
2014-10-30 08:25:00,36.8,34.7,30.07,WNW,282,0.0,0.0,92,0.00,,,0.00,VWS V15.00,2014-10-30 13:25:00,
2014-10-30 08:30:00,37.6,35.2,30.07,WNW,282,0.0,0.0,91,0.00,,,0.00,VWS V15.00,2014-10-30 13:30:00,
2014-10-30 08:35:00,38.5,35.8,30.07,WNW,282,0.0,0.0,90,0.00,,,0.00,VWS V15.00,2014-10-30 13:35:00,
2014-10-30 08:40:00,39.3,35.8,30.07,WNW,282,0.0,0.0,87,0.00,,,0.00,VWS V15.00,2014-10-30 13:40:00,
2014-10-30 08:46:00,40.1,36.0,30.07,West,281,0.0,2.0,85,0.00,,,0.00,VWS V15.00,2014-10-30 13:46:00,
2014-10-30 08:51:00,40.5,35.1,30.07,SW,231,1.0,2.0,81,0.00,,,0.00,VWS V15.00,2014-10-30 13:51:00,
2014-10-30 08:56:00,40.9,34.6,30.07,SW,222,0.0,3.0,78,0.00,,,0.00,VWS V15.00,2014-10-30 13:56:00,
2014-10-30 09:01:00,41.1,34.1,30.07,SW,227,0.0,3.0,76,0.00,,,0.00,VWS V15.00,2014-10-30 14:01:00,
2014-10-30 09:06:00,41.3,34.0,30.07,South,188,0.0,3.0,75,0.00,,,0.00,VWS V15.00,2014-10-30 14:06:00,
2014-10-30 09:11:00,41.6,34.3,30.07,South,188,0.0,3.0,75,0.00,,,0.00,VWS V15.00,2014-10-30 14:11:00,
2014-10-30 09:16:00,42.1,34.1,30.07,WSW,243,2.0,3.0,73,0.00,,,0.00,VWS V15.00,2014-10-30 14:16:00,
2014-10-30 09:21:00,42.5,34.1,30.07,SW,214,0.0,3.0,72,0.00,,,0.00,VWS V15.00,2014-10-30 14:21:00,
2014-10-30 09:26:00,42.9,34.2,30.07,West,274,0.0,3.0,71,0.00,,,0.00,VWS V15.00,2014-10-30 14:26:00,
2014-10-30 09:31:00,43.5,34.4,30.07,WSW,241,0.0,3.0,70,0.00,,,0.00,VWS V15.00,2014-10-30 14:31:00,
2014-10-30 09:36:00,44.3,35.2,30.07,WNW,288,2.0,3.0,70,0.00,,,0.00,VWS V15.00,2014-10-30 14:36:00,
2014-10-30 09:41:00,44.6,33.6,30.07,West,269,1.0,7.0,65,0.00,,,0.00,VWS V15.00,2014-10-30 14:41:00,
2014-10-30 09:46:00,44.8,33.8,30.06,WSW,242,0.0,7.0,65,0.00,,,0.00,VWS V15.00,2014-10-30 14:46:00,
2014-10-30 09:51:00,45.1,34.4,30.06,West,276,2.0,7.0,66,0.00,,,0.00,VWS V15.00,2014-10-30 14:51:00,
2014-10-30 09:56:00,45.2,34.5,30.06,West,276,0.0,7.0,66,0.00,,,0.00,VWS V15.00,2014-10-30 14:56:00,
2014-10-30 10:01:00,45.4,34.7,30.06,WNW,288,0.0,1.0,66,0.00,,,0.00,VWS V15.00,2014-10-30 15:01:00,
2014-10-30 10:06:00,45.5,35.2,30.06,WNW,290,1.0,2.0,67,0.00,,,0.00,VWS V15.00,2014-10-30 15:06:00,
2014-10-30 10:11:00,45.8,34.7,30.06,West,261,2.0,6.0,65,0.00,,,0.00,VWS V15.00,2014-10-30 15:11:00,
2014-10-30 10:16:00,46.1,35.0,30.06,WSW,250,0.0,6.0,65,0.00,,,0.00,VWS V15.00,2014-10-30 15:16:00,
2014-10-30 10:21:00,46.2,35.1,30.06,West,274,4.0,6.0,65,0.00,,,0.00,VWS V15.00,2014-10-30 15:21:00,
2014-10-30 10:26:00,46.4,34.5,30.06,WNW,283,1.0,6.0,63,0.00,,,0.00,VWS V15.00,2014-10-30 15:26:00,